DELTA 1 DEB, 21362

Orbit data source: Space-Track

DELTA 1 DEB, 21362 is space debris in SSO originally from a launch on Thu, 12 Jun 1975 UTC launched from the Air Force Western Test Range (AFWTR). Debris objects in space refer to the collection of defunct objects orbiting the Earth. Examples of debris include non-operational satellites, rocket bodies, and fragments generated from explosions, collisions, or faulty payload assembly.

Loading next visibility...
Identifier
21362, 1975-052CG
Orbit
SSO
Country
Flag of USUS
Related business
Manufacturer
Unknown
Mission
Spacecraft
Bus & Motor
Unknown
Mass
Unknown
Launch date (UTC)
1975-06-12 (51 years ago)
Launch vehicle
Unknown
Launch site
Air Force Western Test Range (AFWTR)
Object type
Payload
Rocket body
Debris
Shape & HBR
Unknown shape, 0.1 m
Radar Cross Section
Small (<0.1 m²)

Expand to show TLE details & history
Last TLE update: 6 days ago

TLE from 6 days ago
0 DELTA 1 DEB
1 21362U 75052CG  25340.95162593  .00004782  00000-0  14874-1 0  9993
2 21362  99.4661 144.3300 0659288 247.0272 275.9412 12.47738276547865
Epoch: 2025-12-06T22:50Z
TLE epoch observation values (Epoch: 2025-12-06T22:50:20.480Z)
Latitude
24.25508°
Longitude
-89.94006°
Altitude
1,457.116 km
Speed
7.145 km/s
True Right ascension
21h 54m 28s
True Declination
24° 08' 17"
Sunlit
Object was in daylight at epoch
Visualization orbit readout
Latitude
Unknown
Longitude
Unknown
Altitude
Unknown
Speed
Unknown
Apparent Right ascension
Unknown
Apparent Declination
Unknown
Sunlit
N/A
Visualization observer readout
Local Sidereal Time
04:32:09
Azimuth
Unknown
Elevation
Unknown
Doppler factor
Unknown
Orbital elements
Apogee altitude
1,988.89 km
Perigee altitude
953.872 km
Semi-major axis
7,849.518 km
Eccentricity
0.06593
Inclination
99.4661°
RAAN
144.33°
Arg. of periapsis
247.0272°
True anomaly
268.38426°
Mean anomaly
275.9412°
Eccentric anomaly
272.16646°
Mean motion
3.12089 °/min
Orbital period
115.35 mins
BSTAR
0.014874
Loading maneuver chart data...
Computing Atmospheric mass density...
Loading historical data...
Loading historical data...
Loading historical data...
Loading historical data...
Loading historical data...
Loading historical data...
Loading historical data...

Documentation

Showing up to 5 results
|